FW9939 Weather Reports


time (UTC)temp
C
wind
direction
speed
KPH
gust
KPH
rain 1hr
cm
rain 24hr
cm
rain mn
cm
humidity
%
barometer
mb
20260503033100 14 0 0.0 0.0 0.00 0.00 0.00 45 1015.6
20260503031554 15 0 0.0 0.0 0.00 0.00 0.00 41 1015.4
20260503030054 15 0 0.0 0.0 0.00 0.00 0.00 40 1015.2
20260503024600 16 0 0.0 0.0 0.00 0.00 0.00 39 1015.0
20260503023053 17 0 0.0 0.0 0.00 0.00 0.00 38 1015.0
20260503021546 18 0 0.0 0.0 0.00 0.00 0.00 36 1014.9
20260503020049 18 0 0.0 0.0 0.00 0.00 0.00 35 1015.0
20260503014546 18 0 0.0 0.0 0.00 0.00 0.00 36 1014.9
20260503013046 18 0 0.0 0.0 0.00 0.00 0.00 36 1014.9
20260503011546 18 0 0.0 0.0 0.00 0.00 0.00 36 1014.8
20260503010042 18 0 0.0 0.0 0.00 0.00 0.00 35 1015.2
20260503004547 18 0 0.0 1.6 0.00 0.00 0.00 36 1015.2
20260503003048 18 303 0.0 6.4 0.00 0.00 0.00 37 1015.3
20260503001603 18 283 0.0 6.4 0.00 0.00 0.00 38 1015.5
20260503000108 18 277 0.0 1.6 0.00 0.00 0.00 37 1015.6
20260502234552 18 277 1.6 14.5 0.00 0.00 0.00 37 1015.7
20260502233101 18 0 0.0 1.6 0.00 0.00 0.00 37 1015.9
20260502231600 18 0 0.0 3.2 0.00 0.00 0.00 37 1016.0
20260502230044 18 98 1.6 9.7 0.00 0.00 0.00 36 1016.2
20260502224544 19 127 0.0 8.0 0.00 0.00 0.00 37 1016.4
20260502223048 18 51 3.2 9.7 0.00 0.00 0.00 37 1016.6
20260502221558 19 107 4.8 12.9 0.00 0.00 0.00 36 1016.7
20260502220046 18 90 1.6 6.4 0.00 0.00 0.00 38 1017.0
20260502214545 18 0 0.0 4.8 0.00 0.00 0.00 38 1017.0
20260502213053 18 44 3.2 8.0 0.00 0.00 0.00 38 1017.3
20260502211548 18 40 3.2 8.0 0.00 0.00 0.00 38 1017.4
20260502210046 18 0 1.6 11.3 0.00 0.00 0.00 39 1017.6
20260502204552 19 123 6.4 12.9 0.00 0.00 0.00 37 1017.9
20260502203054 18 0 0.0 4.8 0.00 0.00 0.00 38 1018.0
20260502201550 18 107 6.4 17.7 0.00 0.00 0.00 39 1018.1
20260502200049 17 0 1.6 12.9 0.00 0.00 0.00 42 1018.5
20260502194546 16 121 4.8 14.5 0.00 0.00 0.00 42 1018.7
20260502193046 17 94 3.2 6.4 0.00 0.00 0.00 41 1018.8
20260502191549 17 111 3.2 14.5 0.00 0.00 0.00 40 1019.1
20260502190051 16 113 1.6 11.3 0.00 0.00 0.00 43 1019.0
20260502184552 16 94 4.8 11.3 0.00 0.00 0.00 43 1019.1
20260502183047 16 0 1.6 11.3 0.00 0.00 0.00 42 1019.1
20260502181549 16 0 1.6 14.5 0.00 0.00 0.00 42 1019.1
20260502163054 17 109 3.2 14.5 0.00 0.00 0.00 42 1019.3
20260502161553 16 90 3.2 14.5 0.00 0.00 0.00 42 1019.3
20260502151550 15 110 0.0 12.9 0.00 0.00 0.00 45 1019.1
20260502123050 8 71 4.8 14.5 0.00 0.00 0.00 58 1018.0
20260502121553 8 111 3.2 12.9 0.00 0.00 0.00 57 1017.8
20260502114544 8 105 3.2 12.9 0.00 0.00 0.00 56 1017.5
20260502113046 8 116 4.8 14.5 0.00 0.00 0.00 55 1017.4
20260502111547 8 107 3.2 11.3 0.00 0.00 0.00 54 1017.1
20260502110047 8 0 3.2 12.9 0.00 0.00 0.00 53 1016.7
20260502104551 9 0 1.6 6.4 0.00 0.00 0.00 51 1016.5
20260502103046 9 112 1.6 11.3 0.00 0.00 0.00 50 1016.1
20260502101548 10 0 3.2 9.7 0.00 0.00 0.00 49 1016.0
20260502070046 9 0 0.0 4.8 0.00 0.00 0.00 42 1014.9
20260502064548 10 110 1.6 4.8 0.00 0.00 0.00 41 1014.8
20260502063043 10 98 3.2 9.7 0.00 0.00 0.00 40 1014.7
20260502061548 10 0 0.0 6.4 0.00 0.00 0.00 39 1014.7
20260502060046 10 0 1.6 6.4 0.00 0.00 0.00 39 1014.8
20260502054548 10 98 0.0 4.8 0.00 0.00 0.00 38 1014.7
20260502053047 10 0 0.0 4.8 0.00 0.00 0.00 37 1014.5
20260502051607 10 0 0.0 4.8 0.00 0.00 0.00 35 1014.7
20260502050047 11 0 0.0 0.0 0.00 0.00 0.00 33 1014.7
20260502044543 12 0 0.0 0.0 0.00 0.00 0.00 31 1014.6
20260502043047 12 0 0.0 4.8 0.00 0.00 0.00 30 1014.4
20260502041546 13 0 0.0 4.8 0.00 0.00 0.00 28 1014.5
20260502040050 15 0 0.0 3.2 0.00 0.00 0.00 26 1014.5
20260502034547 16 50 3.2 8.0 0.00 0.00 0.00 24 1014.4